QPF
0.00 0.00 0.00 0.00 0.00 0.00 0.00 0.00 0.00 0.00 0.00 0.00 0.00 0.00 0.00 0.01 0.01 0.00 0.00 0.08 0.15 0.00 0.01 0.05 0.05 0.05 0.03 0.00 0.04 0.04 0.00 0.00 0.01
0.00 0.00 0.00 0.00 0.00 0.00 0.00 0.00 0.00 0.00 0.00 0.00 0.00 0.00 0.00 0.00 0.00 0.00 0.00 0.02 0.10 0.00 0.01 0.05 0.16 0.17 0.18 0.03 0.00 0.01 0.03 0.00 0.01
0.00 0.00 0.00 0.00 0.00 0.00 0.00 0.00 0.00 0.00 0.00 0.00 0.00 0.00 0.00 0.00 0.00 0.01 0.04 0.04 0.04 0.03 0.05 0.04 0.12 0.35 0.14 0.00 0.01 0.00 0.00 0.00 0.00
0.00 0.00 0.00 0.00 0.00 0.00 0.00 0.00 0.00 0.00 0.00 0.00 0.00 0.00 0.00 0.00 0.00 0.00 0.01 0.00 0.00 0.01 0.00 0.00 0.04 0.05 0.02 0.00 0.00 0.00 0.00 0.00 0.00
0.00 0.00 0.00 0.00 0.00 0.00 0.00 0.00 0.00 0.00 0.00 0.00 0.00 0.00 0.00 0.00 0.00 0.00 0.00 0.00 0.00 0.00 0.00 0.00 0.00 0.00 0.00 0.00 0.00 0.00 0.00 0.00 0.01
0.00 0.00 0.00 0.00 0.00 0.00 0.00 0.00 0.00 0.00 0.00 0.00 0.00 0.00 0.00 0.00 0.00 0.00 0.00 0.00 0.00 0.00 0.00 0.00 0.00 0.00 0.00 0.00 0.00 0.00 0.00 0.00 0.00
0.00 0.00 0.00 0.00 0.00 0.00 0.00 0.00 0.00 0.00 0.00 0.00 0.00 0.00 0.00 0.00 0.00 0.00 0.00 0.00 0.00 0.00 0.00 0.00 0.00 0.00 0.00 0.00 0.00 0.00 0.00 0.00 0.00
0.00 0.00 0.00 0.00 0.00 0.00 0.00 0.00 0.00 0.00 0.00 0.00 0.00 0.00 0.00 0.00 0.00 0.00 0.00 0.00 0.00 0.00 0.00 0.00 0.00 0.00 0.00 0.00 0.00 0.00 0.00 0.00 0.00
0.00 0.00 0.00 0.00 0.00 0.00 0.00 0.00 0.00 0.00 0.00 0.00 0.00 0.00 0.00 0.00 0.00 0.00 0.00 0.00 0.00 0.00 0.00 0.00 0.00 0.00 0.00 0.00 0.00 0.00 0.00 0.00 0.00
0.00 0.00 0.00 0.00 0.00 0.00 0.00 0.00 0.00 0.00 0.00 0.00 0.00 0.00 0.00 0.00 0.00 0.00 0.00 0.00 0.00 0.00 0.00 0.00 0.00 0.00 0.00 0.00 0.00 0.00 0.00 0.00 0.00
0.00 0.00 0.00 0.00 0.00 0.00 0.00 0.00 0.00 0.00 0.00 0.00 0.00 0.00 0.00 0.00 0.00 0.00 0.00 0.00 0.00 0.00 0.00 0.00 0.00 0.00 0.00 0.00 0.00 0.00 0.00 0.00 0.00
0.00 0.00 0.00 0.00 0.00 0.00 0.00 0.00 0.00 0.00 0.00 0.00 0.00 0.00 0.00 0.00 0.00 0.00 0.00 0.00 0.00 0.00 0.00 0.00 0.01 0.03 0.02 0.06 0.08 0.09 0.05 0.01 0.00
0.00 0.00 0.00 0.00 0.00 0.00 0.00 0.00 0.00 0.00 0.00 0.00 0.00 0.00 0.00 0.00 0.00 0.00 0.00 0.00 0.00 0.00 0.00 0.01 0.05 0.07 0.16 0.26 0.22 0.22 0.14 0.06 0.01
0.00 0.00 0.00 0.00 0.00 0.00 0.00 0.00 0.00 0.00 0.00 0.00 0.00 0.00 0.00 0.00 0.00 0.00 0.00 0.00 0.00 0.01 0.04 0.05 0.04 0.06 0.11 0.13 0.17 0.22 0.25 0.18 0.07
0.00 0.00 0.00 0.00 0.00 0.00 0.00 0.00 0.00 0.00 0.00 0.00 0.00 0.00 0.00 0.00 0.00 0.00 0.00 0.02 0.05 0.06 0.02 0.00 0.00 0.00 0.00 0.00 0.02 0.10 0.19 0.18 0.11
0.00 0.00 0.00 0.00 0.00 0.00 0.00 0.00 0.00 0.00 0.00 0.01 0.00 0.00 0.00 0.00 0.01 0.01 0.01 0.04 0.02 0.06 0.06 0.01 0.01 0.00 0.00 0.02 0.03 0.03 0.09 0.15 0.12
0.02 0.00 0.00 0.00 0.00 0.00 0.00 0.00 0.00 0.00 0.00 0.00 0.00 0.00 0.00 0.00 0.00 0.01 0.01 0.00 0.01 0.09 0.14 0.09 0.05 0.00 0.00 0.06 0.07 0.04 0.04 0.10 0.09
0.06 0.00 0.00 0.00 0.00 0.00 0.00 0.00 0.00 0.00 0.00 0.00 0.00 0.00 0.01 0.01 0.01 0.00 0.00 0.00 0.00 0.00 0.01 0.02 0.02 0.01 0.00 0.00 0.04 0.05 0.03 0.01 0.01
0.09 0.01 0.00 0.00 0.00 0.00 0.00 0.00 0.00 0.00 0.00 0.00 0.00 0.00 0.00 0.00 0.00 0.00 0.00 0.00 0.00 0.00 0.00 0.00 0.00 0.00 0.00 0.00 0.00 0.00 0.01 0.02 0.01
0.13 0.03 0.00 0.00 0.00 0.00 0.00 0.00 0.00 0.00 0.00 0.00 0.00 0.00 0.00 0.00 0.00 0.00 0.00 0.00 0.00 0.00 0.00 0.00 0.00 0.00 0.00 0.00 0.01 0.03 0.06 0.03 0.01
MSLP
1000.82 1000.80 1001.41 1002.31 1002.51 1003.18 1003.80 1004.24 1004.77 1005.44 1006.21 1006.86 1007.42 1007.91 1008.28 1008.84 1009.34 1009.84 1010.31 1010.94 1011.60 1012.03 1012.28 1012.59 1012.98 1013.35 1013.68 1013.94 1014.15 1014.65 1014.90 1015.41 1015.75
999.79 1000.34 1000.75 1001.32 1001.83 1002.25 1002.82 1003.47 1003.95 1004.50 1005.29 1006.05 1006.64 1007.07 1007.71 1008.30 1008.90 1009.44 1009.97 1010.47 1011.02 1011.38 1011.50 1011.90 1012.46 1012.98 1013.41 1013.70 1013.93 1014.31 1014.71 1015.06 1015.33
999.39 999.96 1000.73 1000.56 1001.20 1001.47 1002.15 1002.55 1003.04 1003.88 1004.65 1005.08 1005.66 1006.56 1007.16 1007.77 1008.34 1008.92 1009.43 1010.03 1010.53 1010.74 1010.95 1011.39 1012.07 1012.59 1012.75 1013.35 1013.72 1014.03 1014.43 1014.79 1014.97
998.82 999.35 1000.12 999.99 1000.45 1000.70 1001.29 1001.88 1002.65 1003.33 1004.14 1004.84 1005.59 1006.26 1006.79 1007.37 1007.96 1008.46 1008.97 1009.53 1009.84 1010.18 1010.46 1010.95 1011.42 1011.97 1012.42 1012.87 1013.29 1013.65 1014.07 1014.32 1014.51
997.59 998.33 998.84 999.51 1000.02 1000.36 1001.16 1001.69 1002.31 1002.95 1003.65 1004.40 1005.03 1005.75 1006.36 1006.91 1007.43 1008.01 1008.57 1009.01 1009.22 1009.50 1010.01 1010.57 1011.06 1011.60 1012.14 1012.61 1012.93 1013.25 1013.62 1013.81 1013.92
996.77 998.34 999.03 999.03 999.83 1000.36 1000.93 1001.52 1002.08 1002.60 1003.29 1003.95 1004.63 1005.43 1006.03 1006.64 1007.11 1007.57 1008.02 1008.36 1008.81 1009.21 1009.65 1010.18 1010.75 1011.28 1011.85 1012.32 1012.59 1012.83 1013.01 1013.17 1013.33
996.33 997.44 998.88 999.29 999.54 1000.11 1000.47 1001.21 1001.78 1002.36 1003.07 1003.66 1004.36 1005.11 1005.77 1006.35 1006.72 1007.10 1007.63 1008.13 1008.67 1009.11 1009.58 1010.08 1010.55 1011.01 1011.40 1011.78 1012.08 1012.42 1012.67 1012.88 1013.03
997.02 997.71 999.04 1000.09 999.39 999.97 1000.62 1001.22 1001.92 1002.34 1002.74 1003.46 1004.10 1004.84 1005.48 1005.98 1006.44 1006.99 1007.57 1008.16 1008.58 1008.96 1009.45 1009.86 1010.19 1010.72 1011.18 1011.50 1011.75 1011.90 1012.19 1012.51 1012.74
997.91 998.49 998.46 999.24 999.18 999.58 1000.47 1000.96 1001.49 1002.19 1002.70 1003.18 1003.89 1004.61 1005.20 1005.74 1006.43 1007.02 1007.57 1007.97 1008.36 1008.81 1009.27 1009.80 1010.24 1010.55 1010.74 1011.10 1011.41 1011.55 1011.68 1011.94 1012.30
998.16 999.13 998.59 998.97 998.99 999.45 999.85 1000.68 1001.09 1001.79 1002.58 1003.16 1003.79 1004.43 1005.08 1005.73 1006.40 1006.89 1007.30 1007.62 1008.08 1008.60 1009.11 1009.52 1009.92 1010.29 1010.70 1011.07 1011.17 1011.18 1011.38 1011.65 1011.91
997.05 998.17 998.89 998.57 998.92 999.67 999.66 1000.31 1001.12 1001.88 1002.55 1003.11 1003.64 1004.29 1004.95 1005.59 1006.20 1006.61 1007.01 1007.36 1007.70 1008.15 1008.54 1008.84 1009.15 1009.55 1009.96 1010.37 1010.70 1010.93 1011.12 1011.21 1011.58
995.73 996.28 997.62 998.32 998.45 999.24 999.66 1000.13 1000.99 1001.84 1002.80 1003.27 1003.68 1004.10 1004.49 1005.06 1005.70 1006.19 1006.58 1006.99 1007.25 1007.47 1007.75 1007.96 1008.12 1008.29 1008.88 1009.54 1009.84 1010.19 1010.47 1011.00 1011.32
996.99 997.11 997.03 997.63 998.36 998.91 999.61 1000.23 1000.90 1001.85 1002.74 1003.27 1003.61 1003.74 1004.08 1004.61 1005.13 1005.53 1005.94 1006.26 1006.53 1006.57 1006.85 1007.15 1007.25 1007.58 1007.54 1007.19 1008.19 1009.36 1010.08 1010.76 1010.98
997.48 997.68 998.61 998.48 998.98 999.25 999.54 1000.09 1000.80 1001.81 1002.63 1003.01 1002.84 1003.09 1003.59 1004.23 1004.61 1004.94 1005.22 1005.66 1005.95 1006.20 1006.57 1006.95 1007.45 1007.71 1007.53 1007.57 1007.68 1007.67 1008.97 1010.54 1011.21
998.10 998.56 999.17 999.30 999.59 999.82 1000.03 1000.46 1001.12 1002.09 1002.70 1002.80 1002.95 1003.39 1003.71 1004.11 1004.48 1004.84 1005.11 1005.51 1005.88 1006.15 1006.58 1006.97 1007.19 1007.63 1007.90 1007.46 1007.81 1008.16 1008.39 1008.96 1010.09
997.66 999.52 999.59 1000.10 1000.51 1000.78 1001.21 1001.44 1001.81 1002.48 1002.98 1002.83 1002.68 1003.07 1003.60 1004.12 1004.54 1004.92 1005.14 1005.50 1005.87 1006.27 1006.63 1006.77 1007.03 1007.34 1007.48 1007.61 1008.02 1008.03 1008.23 1008.12 1009.42
999.41 999.23 999.66 1000.44 1000.92 1001.65 1002.32 1002.52 1002.72 1003.04 1003.20 1003.20 1003.01 1003.30 1003.71 1004.10 1004.50 1004.83 1005.06 1005.35 1005.57 1005.91 1006.22 1006.70 1007.02 1007.27 1007.53 1007.80 1008.04 1008.11 1008.53 1009.09 1009.40
1002.66 999.58 1000.30 1000.72 1000.62 1001.60 1002.60 1003.07 1003.26 1003.34 1003.62 1003.66 1003.77 1003.95 1004.30 1004.68 1004.94 1005.23 1005.48 1005.71 1005.94 1006.15 1006.52 1006.68 1006.89 1007.33 1007.58 1007.89 1008.12 1008.07 1008.18 1008.33 1008.26
1004.59 1000.53 1000.40 1000.71 1001.05 1001.72 1002.58 1003.04 1003.26 1003.67 1003.79 1003.78 1004.23 1004.78 1005.09 1005.23 1005.40 1005.64 1005.80 1006.00 1006.21 1006.30 1006.52 1006.74 1006.93 1007.32 1007.66 1007.74 1007.91 1008.09 1008.43 1008.58 1008.75
1005.88 1004.05 1001.62 1001.33 1001.87 1002.19 1003.02 1003.66 1003.76 1003.86 1003.88 1004.07 1004.40 1004.76 1005.14 1005.48 1005.60 1005.83 1006.11 1006.33 1006.47 1006.55 1006.92 1007.04 1007.36 1007.56 1007.77 1007.84 1007.97 1008.05 1008.38 1008.56 1008.68
Thickness
5867 5871 5868 5862 5868 5865 5861 5859 5857 5852 5844 5837 5833 5827 5823 5818 5812 5807 5803 5798 5793 5788 5786 5784 5782 5780 5777 5775 5771 5768 5766 5761 5759
5872 5869 5870 5870 5873 5873 5869 5866 5863 5858 5850 5843 5838 5832 5825 5819 5814 5808 5803 5799 5796 5793 5792 5789 5785 5781 5775 5772 5771 5768 5764 5760 5758
5864 5868 5866 5878 5877 5878 5875 5875 5871 5865 5858 5851 5845 5835 5827 5820 5815 5811 5807 5801 5796 5795 5795 5791 5785 5780 5775 5773 5771 5768 5764 5761 5759
5864 5866 5868 5878 5882 5884 5880 5876 5869 5865 5858 5851 5843 5835 5828 5822 5816 5812 5808 5803 5801 5798 5796 5792 5788 5783 5778 5775 5771 5768 5764 5762 5760
5877 5874 5876 5881 5882 5880 5875 5871 5869 5865 5860 5853 5847 5838 5831 5825 5820 5815 5810 5805 5803 5801 5798 5794 5789 5786 5781 5777 5773 5770 5765 5763 5761
5881 5867 5867 5880 5875 5876 5873 5871 5869 5866 5860 5856 5849 5840 5834 5827 5822 5818 5813 5810 5806 5802 5798 5794 5790 5785 5780 5775 5772 5769 5768 5765 5763
5882 5876 5866 5871 5874 5874 5876 5872 5870 5866 5861 5857 5851 5844 5836 5828 5824 5821 5815 5810 5805 5801 5797 5792 5788 5784 5780 5777 5773 5769 5767 5764 5761
5868 5865 5855 5854 5872 5872 5870 5867 5864 5864 5863 5857 5853 5844 5837 5832 5828 5822 5815 5808 5803 5800 5795 5792 5788 5783 5779 5776 5773 5771 5767 5764 5761
5853 5852 5861 5861 5873 5876 5868 5866 5864 5862 5859 5857 5852 5843 5837 5833 5826 5819 5814 5809 5805 5801 5795 5790 5785 5781 5778 5775 5773 5771 5769 5766 5762
5846 5841 5841 5859 5869 5874 5873 5866 5865 5859 5856 5853 5848 5841 5836 5830 5823 5817 5813 5810 5806 5800 5794 5790 5785 5781 5776 5771 5769 5769 5767 5763 5760
5855 5851 5848 5859 5865 5866 5871 5866 5860 5855 5852 5848 5844 5838 5833 5827 5821 5817 5814 5809 5804 5799 5795 5793 5789 5785 5780 5775 5770 5767 5764 5761 5758
5869 5868 5861 5860 5867 5865 5866 5863 5857 5851 5843 5841 5838 5834 5831 5827 5821 5816 5813 5807 5804 5802 5798 5795 5793 5791 5784 5776 5773 5768 5763 5756 5753
5852 5856 5864 5865 5865 5864 5860 5854 5853 5845 5836 5834 5831 5831 5829 5825 5819 5815 5812 5809 5805 5805 5802 5798 5795 5787 5782 5787 5777 5766 5757 5751 5748
5845 5846 5845 5854 5852 5852 5853 5852 5848 5837 5831 5829 5835 5833 5829 5822 5819 5813 5811 5809 5805 5800 5796 5791 5785 5779 5778 5774 5768 5766 5755 5742 5738
5834 5834 5835 5839 5839 5840 5842 5842 5838 5828 5825 5828 5830 5825 5821 5816 5813 5809 5805 5802 5798 5794 5788 5783 5780 5772 5766 5768 5762 5756 5749 5746 5734
5830 5813 5823 5824 5824 5823 5823 5825 5824 5817 5818 5821 5822 5818 5814 5810 5807 5803 5799 5794 5790 5785 5780 5776 5772 5766 5761 5755 5751 5749 5745 5745 5731
5808 5817 5817 5814 5814 5809 5805 5807 5808 5807 5808 5809 5810 5806 5804 5801 5796 5793 5791 5788 5786 5781 5777 5769 5763 5757 5752 5747 5743 5740 5733 5727 5721
5765 5809 5806 5808 5810 5804 5796 5795 5795 5796 5795 5796 5794 5792 5790 5786 5784 5782 5778 5776 5773 5770 5766 5763 5757 5749 5743 5738 5734 5732 5730 5725 5725
5715 5794 5800 5801 5801 5797 5792 5789 5788 5785 5786 5786 5781 5775 5773 5772 5771 5767 5765 5763 5761 5759 5756 5753 5748 5739 5734 5732 5728 5723 5717 5711 5708
5694 5745 5779 5785 5784 5786 5780 5775 5774 5775 5776 5774 5771 5767 5763 5761 5759 5756 5752 5750 5748 5745 5742 5738 5734 5730 5725 5720 5717 5713 5709 5706 5702